Weather History for KTUL - March, 2014

Change the Weather History Date:

Tuesday, March 18, 2014

  Actual Average Record
Temperature  
Mean Temperature 59 °F 52 °F  
Max Temperature 75 °F 63 °F 99 °F (1907)
Min Temperature 43 °F 41 °F 12 °F (1923)
Degree Days  
Heating Degree Days 6 13  
Month to date heating degree days 386 287  
Since 1 July heating degree days 3687 3198  
Cooling Degree Days 0 0  
Month to date cooling degree days 0 0  
Year to date cooling degree days 0 1  
Growing Degree Days 10 (Base 50)    
Moisture  
Dew Point 35 °F    
Average Humidity 45    
Maximum Humidity 71    
Minimum Humidity 19    
Precipitation  
Precipitation 0.00 in 0.11 in 2.75 in (2008)
Month to date precipitation 2.11 1.85  
Year to date precipitation 2.56 5.36  
Sea Level Pressure  
Sea Level Pressure 29.53 in    
Wind  
Wind Speed 22 mph (SSW)    
Max Wind Speed 35 mph    
Max Gust Speed 42 mph    
Visibility 10 miles    
Events      
T = Trace of Precipitation, MM = Missing Value Source: NWS Daily Summary

Daily Weather History Graph

Daily Weather History Graph

Search for Another Location

Airport or City:

Trip Planner

Search our weather history database for the weather conditions in past years. The results will help you decide how hot, cold, wet, or windy it might be!

Date:

Astronomy

Mar. 18, 2014 Rise Set
Actual Time 7:29 AM CDT 7:33 PM CDT
Civil Twilight 7:04 AM CDT 7:59 PM CDT
Nautical Twilight 6:34 AM CDT 8:29 PM CDT
Astronomical Twilight 6:04 AM CDT 8:59 PM CDT
Moon 9:47 PM CDT (3/18) 8:23 AM CDT (3/18)
Length of Visible Light 12h 54m
Length of Day
12h 03m
Waning Gibbous, 96% of the Moon is Illuminated
Mar 18
Waning Gibbous
Mar 23
Last Quarter
Mar 30
New
Apr 7
First Quarter
Apr 15
Full

Hourly Weather History & Observations

Time (CDT) Temp. Windchill Dew Point Humidity Pressure Visibility Wind Dir Wind Speed Gust Speed Precip Events Conditions
12:53 AM 48.0 °F - 28.0 °F 46% 29.60 in 10.0 mi SSE 16.1 mph - N/A   Overcast
1:53 AM 46.9 °F - 28.9 °F 50% 29.57 in 10.0 mi SSE 16.1 mph - N/A   Mostly Cloudy
2:53 AM 46.9 °F - 32.0 °F 56% 29.57 in 10.0 mi SSE 21.9 mph 29.9 mph N/A   Overcast
3:53 AM 46.9 °F - 34.0 °F 61% 29.52 in 10.0 mi SSE 19.6 mph 28.8 mph N/A   Overcast
4:53 AM 46.0 °F 38.5 °F 36.0 °F 68% 29.48 in 10.0 mi SSE 19.6 mph 28.8 mph N/A   Partly Cloudy
5:53 AM 48.0 °F - 37.0 °F 66% 29.46 in 10.0 mi South 27.6 mph 38.0 mph N/A   Partly Cloudy
6:53 AM 46.9 °F - 37.9 °F 71% 29.46 in 10.0 mi SSE 20.7 mph 32.2 mph N/A   Partly Cloudy
7:53 AM 48.0 °F - 39.0 °F 71% 29.47 in 10.0 mi South 23.0 mph 34.5 mph N/A   Partly Cloudy
8:53 AM 50.0 °F - 37.9 °F 63% 29.47 in 10.0 mi SSE 20.7 mph 32.2 mph N/A   Partly Cloudy
9:53 AM 53.1 °F - 37.9 °F 57% 29.47 in 10.0 mi South 24.2 mph 39.1 mph N/A   Partly Cloudy
10:53 AM 57.9 °F - 37.9 °F 47% 29.46 in 10.0 mi South 24.2 mph 42.6 mph N/A   Scattered Clouds
11:53 AM 61.0 °F - 39.0 °F 44% 29.44 in 10.0 mi South 28.8 mph 36.8 mph N/A   Partly Cloudy
12:53 PM 64.9 °F - 39.0 °F 39% 29.44 in 10.0 mi South 21.9 mph 31.1 mph N/A   Clear
1:53 PM 70.0 °F - 39.0 °F 32% 29.43 in 10.0 mi South 18.4 mph 32.2 mph N/A   Clear
2:53 PM 73.0 °F - 33.1 °F 23% 29.42 in 10.0 mi South 21.9 mph 34.5 mph N/A   Clear
3:53 PM 75.0 °F - 30.9 °F 20% 29.43 in 10.0 mi WSW 25.3 mph 34.5 mph N/A   Clear
4:53 PM 72.0 °F - 34.0 °F 25% 29.46 in 10.0 mi West 24.2 mph 35.7 mph N/A   Clear
5:53 PM 71.1 °F - 34.0 °F 26% 29.49 in 10.0 mi West 19.6 mph - N/A   Partly Cloudy
6:53 PM 69.1 °F - 33.1 °F 26% 29.53 in 10.0 mi West 19.6 mph 27.6 mph N/A   Partly Cloudy
7:53 PM 64.9 °F - 32.0 °F 29% 29.59 in 10.0 mi West 9.2 mph - N/A   Partly Cloudy
8:53 PM 61.0 °F - 37.0 °F 41% 29.68 in 10.0 mi WNW 28.8 mph 39.1 mph N/A   Partly Cloudy
9:53 PM 55.0 °F - 35.1 °F 47% 29.77 in 10.0 mi WNW 18.4 mph 31.1 mph N/A   Partly Cloudy
10:53 PM 50.0 °F - 30.0 °F 46% 29.82 in 10.0 mi West 24.2 mph 32.2 mph N/A   Partly Cloudy
11:53 PM 46.9 °F - 28.9 °F 50% 29.85 in 10.0 mi West 31.1 mph 41.4 mph N/A   Clear